Location: Pulvis Stellarum Observatory
(41.6962°N, 71.4263°W)
Time: 09:39:42
(UTC-04:00)

Cosmos 1758 - Visible Passes

Search period start: 27 May 2017 00:00
Search period end: 06 June 2017 00:00
Orbit: 541 x 565 km, 82.5° (Epoch: 26 May)

Date Brightness Start Highest point End Pass type
(mag) Time Alt. Az. Time Alt. Az. Time Alt. Az.
27 May 3.4 23:17:36 10° N 23:21:12 72° N 23:21:12 72° N visible
28 May 3.3 23:14:19 10° N 23:18:04 75° NW 23:18:04 75° NW visible
29 May 3.4 23:11:03 10° NNW 23:14:57 70° W 23:14:57 70° W visible
30 May 3.5 23:07:47 10° NNW 23:11:44 61° W 23:11:51 61° WSW visible
31 May 5.6 21:30:18 10° NE 21:31:34 11° ENE 21:32:50 10° E visible
31 May 3.7 23:04:31 10° NNW 23:08:25 53° W 23:08:46 51° WSW visible
01 Jun 5.5 21:26:32 10° NE 21:28:20 13° ENE 21:29:54 11° E visible
01 Jun 3.9 23:01:17 10° NNW 23:05:08 47° W 23:05:41 43° WSW visible
02 Jun 5.4 21:22:56 10° NE 21:25:06 14° ENE 21:26:50 11° E visible
02 Jun 4.2 22:58:03 10° NNW 23:01:49 41° W 23:02:38 36° SW visible
03 Jun 5.2 21:19:23 10° NNE 21:21:52 16° ENE 21:23:48 12° ESE visible
03 Jun 4.5 22:54:50 10° NNW 22:58:30 36° W 22:59:36 30° SW visible
04 Jun 5.1 21:15:53 10° NNE 21:18:37 18° ENE 21:20:46 12° ESE visible
04 Jun 4.7 22:51:38 10° NNW 22:55:12 32° W 22:56:34 25° SW visible
05 Jun 4.9 21:12:25 10° NNE 21:15:22 20° ENE 21:17:46 12° ESE visible
05 Jun 4.9 22:48:26 10° NNW 22:51:53 28° W 22:53:34 21° SW visible
